This demonstration page uses our WeatherBlox Daily Observations layout. Learn more.

Left ArrowRight Arrow

Hourly Observations for January 21, 2018

Temp ( °F °C ) Dew Point ( °F °C ) Humidity (%) Winds ( mph kmh ) Pressure ( in mb ) Visibility ( mi km ) Precip ( " mm )
12:53 am 00:53 Clear 46 7.8 31 -0.6 56 56 SE 15 24 29.71 1006 10 16 0.00 0.00
1:53 am 01:53 Clear 44 6.7 36 2.2 73 73 SE 9 15 29.70 1006 10 16 0.00 0.00
2:53 am 02:53 Clear 41 5 37 2.8 86 86 S 3 6 29.72 1006 10 16 0.00 0.00
3:53 am 03:53 Clear 36 2.2 33 0.6 89 89 E 5 7 29.72 1007 9 14 0.00 0.00
4:53 am 04:53 Clear with Mist and Fog 37 2.8 37 2.8 100 100 Calm 29.72 1007 6 10 0.00 0.00
5:17 am 05:17 Clear with Mist and Fog 34 1.1 34 1.1 100 100 Calm 29.88 1012 2 3 0.00 0.00
5:26 am 05:26 Clear with Fog 32 0 32 0 100 100 Calm 29.91 1013 1 1 0.00 0.00
5:32 am 05:32 Clear with Mist and Fog 33 0.6 32 0 96 96 Calm 29.91 1013 2 3 0.00 0.00
5:40 am 05:40 Clear with Mist and Fog 33 0.6 31 -0.6 92 92 NW 5 7 29.91 1013 4 6 0.00 0.00
5:42 am 05:42 Mostly Clear with Mist and Fog 32 0 31 -0.6 96 96 NNW 5 7 29.91 1013 2 3 0.00 0.00
5:53 am 05:53 Mostly Clear with Mist and Fog 31 -0.6 30 -1.1 96 96 NNW 7 11 29.75 1008 2 2 0.00 0.00
5:57 am 05:57 Mostly Clear with Mist and Fog 31 -0.6 30 -1.1 96 96 NNW 8 13 29.91 1013 3 5 0.00 0.00
6:40 am 06:40 Mostly Cloudy with Mist and Fog 29 -1.7 28 -2.2 96 96 NNE 7 11 29.97 1015 2 3 0.00 0.00
6:45 am 06:45 Mostly Cloudy with Freezing Fog 29 -1.7 29 -1.7 100 100 NNW 9 15 29.97 1015 0 0 0.00 0.00
6:53 am 06:53 Mostly Cloudy with Freezing Fog 30 -1.1 30 -1.1 100 100 NNW 6 9 29.79 1009 0 0 0.00 0.00
7:09 am 07:09 Mostly Cloudy with Mist and Fog 30 -1.1 30 -1.1 100 100 NNW 5 7 29.97 1015 1 2 0.00 0.00
7:13 am 07:13 Cloudy with Mist and Fog 30 -1.1 30 -1.1 100 100 Calm 29.97 1015 3 5 0.00 0.00
7:33 am 07:33 Cloudy with Mist and Fog 29 -1.7 29 -1.7 100 100 Calm 30.00 1016 2 3 0.00 0.00
7:38 am 07:38 Cloudy with Mist and Fog 29 -1.7 29 -1.7 100 100 Calm 30.00 1016 3 5 0.00 0.00
7:42 am 07:42 Cloudy with Mist and Fog 30 -1.1 30 -1.1 100 100 Calm 29.97 1015 2 3 0.00 0.00
7:50 am 07:50 Mostly Cloudy with Freezing Fog 30 -1 30 -1 100 100 Calm 29.97 1015 0 0 0.00 0.00
7:59 am 07:59 Mostly Cloudy with Mist and Fog 29 -1.7 29 -1.7 100 100 Calm 30.00 1016 1 2 0.00 0.00
8:01 am 08:01 Partly Cloudy with Mist and Fog 30 -1.1 29 -1.7 96 96 SE 6 9 29.97 1015 2 3 0.00 0.00
8:11 am 08:11 Sunny with Mist and Fog 31 -0.6 30 -1.1 96 96 S 5 7 29.97 1015 3 5 0.00 0.00
8:53 am 08:53 Sunny 43 6.1 36 2.2 76 76 WNW 10 17 29.86 1011 10 16 0.00 0.00
9:53 am 09:53 Sunny 55 12.8 27 -2.8 34 34 W 26 43 29.87 1011 10 16 0.00 0.00
10:51 am 10:51 Mostly Cloudy with Haze 55 13 21 -6 26 26 W 28 44 29.91 1013 6 10 0.00 0.00
10:53 am 10:53 Mostly Cloudy 56 13.3 21 -6.1 26 26 W 25 41 29.91 1013 7 11 0.00 0.00
11:53 am 11:53 Cloudy with Haze 56 13.3 18 -7.8 22 22 W 35 56 29.90 1013 6 10 0.00 0.00
12:16 pm 12:16 Partly Cloudy 57 13.9 17 -8.3 21 21 W 29 46 29.88 1012 10 16 0.00 0.00
12:53 pm 12:53 Sunny 58 14.4 11 -11.7 15 15 W 38 61 29.85 1011 8 13 0.00 0.00
1:53 pm 13:53 Sunny 59 15 10 -12.2 14 14 W 21 33 29.84 1011 10 16 0.00 0.00
2:53 pm 14:53 Sunny 61 16.1 -2 -18.9 7 7 W 28 44 29.82 1010 10 16 0.00 0.00
3:53 pm 15:53 Sunny 59 15 -8 -22.2 6 6 W 31 50 29.84 1010 10 16 0.00 0.00
4:53 pm 16:53 Sunny 58 14.4 -5 -20.6 7 7 W 25 41 29.85 1011 10 16 0.00 0.00
5:53 pm 17:53 Sunny 55 12.8 1 -17.2 11 11 W 25 41 29.89 1012 10 16 0.00 0.00
6:53 pm 18:53 Clear 52 11.1 5 -15 15 15 W 16 26 29.92 1013 10 16 0.00 0.00
7:53 pm 19:53 Clear 49 9.4 5 -15 16 16 W 10 17 29.94 1014 10 16 0.00 0.00
8:53 pm 20:53 Clear 48 8.9 5 -15 17 17 W 15 24 29.93 1014 10 16 0.00 0.00
9:53 pm 21:53 Clear 41 5 6 -14.4 23 23 WSW 9 15 29.96 1015 10 16 0.00 0.00
10:53 pm 22:53 Clear 38 3.3 7 -13.9 27 27 WSW 8 13 29.99 1016 10 16 0.00 0.00
11:53 pm 23:53 Clear 36 2.2 7 -13.9 30 30 N 3 6 30.02 1017 10 16 0.00 0.00

Powered by AerisWeather